Regional Weather Roundup
Issued by NWS

Home | Current Version | Previous Version | Text Only | Print | Product List | Glossary On
Versions: 1 2 3 4 5 6 7 8 9 10 11 12 13 14 15 16 17 18 19 20 21 22 23 24 25 26 27 28
000
ASCA42 TJSJ 251210
RWRPR
PUERTO RICO/U.S. VIRGIN ISLANDS HOURLY WEATHER ROUNDUP
NATIONAL WEATHER SERVICE SAN JUAN PR
800 AM AST SAT MAR 25 2017

PRZ001>002-007>008-010-251300-
PUERTO RICO

CITY           SKY/WX    TMP DP  RH WIND       PRES   REMARKS
SAN JUAN LMM   CLOUDY    75  70  83 SE8       29.94R
AGUADILLA      PTSUNNY   73  70  88 CALM      29.92R
CEIBA          CLOUDY    75  72  88 W5        29.99R
$$

VIZ001>002-251300-
U.S. VIRGIN ISLANDS

CITY           SKY/WX    TMP DP  RH WIND       PRES   REMARKS
CHARLOTTE AMA  MOSUNNY   77  72  83 SE10      29.96R
CHRISTIANSTED  CLOUDY    79  73  83 SE10      29.96R
$$

HOURLY WEATHER ROUNDUP FOR THE NEWS MEDIA

CITY           SKY/WX    TMP DP  RH WIND       PRES   REMARKS
ORLANDO        CLEAR     62  60  93 E6        30.21R
NEW YORK       CLOUDY    55  41  59 W6        30.15R
NEWARK         CLOUDY    52  39  61 SW3       30.14R
CHICAGO        LGT RAIN  41  38  89 N14       30.05R FOG
HARTFORD       CLOUDY    44  35  70 N5        30.16R
BOSTON         CLOUDY    42  38  85 N5        30.17R
DALLAS         PTCLDY    56  44  64 W9        29.98R
PHILADELPHIA   CLOUDY    53  46  77 SW9       30.16R
LOS ANGELES    PTCLDY    56  51  84 NW8       30.11F
WASHINGTON DC  MOCLDY    56  46  69 S7        30.19R



USA.gov is the U.S. government's official web portal to all federal, state and local government web resources and services.